Time,TemperatureF,DewpointF,PressureIn,WindDirection,WindDirectionDegrees,WindSpeedMPH,WindSpeedGustMPH,Humidity,HourlyPrecipIn,Conditions,Clouds,dailyrainin,SoftwareType,DateUTC
2013-03-20 00:02:00,34.0,14.0,-100.00,WNW,282,2.0,5.0,44,0.00,,,0.00,,2013-03-20 06:02:00,
2013-03-20 00:12:00,34.0,14.0,-100.00,WNW,282,2.0,5.0,44,0.00,,,0.00,,2013-03-20 06:12:00,
2013-03-20 00:22:00,34.0,14.0,-100.00,WNW,282,2.0,5.0,44,0.00,,,0.00,,2013-03-20 06:22:00,
2013-03-20 00:32:00,34.0,14.0,-100.00,WNW,282,2.0,5.0,44,0.00,,,0.00,,2013-03-20 06:32:00,
2013-03-20 00:40:00,33.0,14.0,-100.00,WNW,297,0.0,5.0,46,0.00,,,0.00,,2013-03-20 06:40:00,
2013-03-20 01:02:00,33.0,14.0,-100.00,WNW,297,0.0,5.0,46,0.00,,,0.00,,2013-03-20 07:02:00,
2013-03-20 01:12:00,33.0,14.0,-100.00,WNW,297,0.0,5.0,46,0.00,,,0.00,,2013-03-20 07:12:00,
2013-03-20 01:22:00,33.0,14.0,-100.00,WNW,297,0.0,5.0,46,0.00,,,0.00,,2013-03-20 07:22:00,
2013-03-20 01:32:00,33.0,14.0,-100.00,WNW,297,0.0,5.0,46,0.00,,,0.00,,2013-03-20 07:32:00,
2013-03-20 01:40:00,30.0,14.0,-100.00,West,275,2.0,4.0,51,0.00,,,0.00,,2013-03-20 07:40:00,
2013-03-20 02:02:00,30.0,14.0,-100.00,West,275,2.0,4.0,51,0.00,,,0.00,,2013-03-20 08:02:00,
2013-03-20 02:12:00,30.0,14.0,-100.00,West,275,2.0,4.0,51,0.00,,,0.00,,2013-03-20 08:12:00,
2013-03-20 02:22:00,30.0,14.0,-100.00,West,275,2.0,4.0,51,0.00,,,0.00,,2013-03-20 08:22:00,
2013-03-20 02:32:00,30.0,14.0,-100.00,West,275,2.0,4.0,51,0.00,,,0.00,,2013-03-20 08:32:00,
2013-03-20 02:40:00,28.0,13.0,-100.00,West,273,2.0,5.0,53,0.00,,,0.00,,2013-03-20 08:40:00,
2013-03-20 03:02:00,28.0,13.0,-100.00,West,273,2.0,5.0,53,0.00,,,0.00,,2013-03-20 09:02:00,
2013-03-20 03:12:00,28.0,13.0,-100.00,West,273,2.0,5.0,53,0.00,,,0.00,,2013-03-20 09:12:00,
2013-03-20 03:22:00,28.0,13.0,-100.00,West,273,2.0,5.0,53,0.00,,,0.00,,2013-03-20 09:22:00,
2013-03-20 03:33:00,28.0,13.0,-100.00,West,273,2.0,5.0,53,0.00,,,0.00,,2013-03-20 09:33:00,
2013-03-20 03:40:00,26.0,14.0,-100.00,WNW,296,1.0,3.0,59,0.00,,,0.00,,2013-03-20 09:40:00,
2013-03-20 04:03:00,26.0,14.0,-100.00,WNW,296,1.0,3.0,59,0.00,,,0.00,,2013-03-20 10:03:00,
2013-03-20 04:12:00,26.0,14.0,-100.00,WNW,296,1.0,3.0,59,0.00,,,0.00,,2013-03-20 10:12:00,
2013-03-20 04:23:00,26.0,14.0,-100.00,WNW,296,1.0,3.0,59,0.00,,,0.00,,2013-03-20 10:23:00,
2013-03-20 04:32:00,26.0,14.0,-100.00,WNW,296,1.0,3.0,59,0.00,,,0.00,,2013-03-20 10:32:00,
2013-03-20 04:40:00,26.0,13.0,-100.00,West,279,2.0,4.0,57,0.00,,,0.00,,2013-03-20 10:40:00,
2013-03-20 05:03:00,26.0,13.0,-100.00,West,279,2.0,4.0,57,0.00,,,0.00,,2013-03-20 11:03:00,
2013-03-20 05:12:00,26.0,13.0,-100.00,West,279,2.0,4.0,57,0.00,,,0.00,,2013-03-20 11:12:00,
2013-03-20 05:22:00,26.0,13.0,-100.00,West,279,2.0,4.0,57,0.00,,,0.00,,2013-03-20 11:22:00,
2013-03-20 05:32:00,26.0,13.0,-100.00,West,279,2.0,4.0,57,0.00,,,0.00,,2013-03-20 11:32:00,
2013-03-20 05:40:00,26.0,12.0,-100.00,West,277,2.0,6.0,54,0.00,,,0.00,,2013-03-20 11:40:00,
2013-03-20 06:02:00,26.0,12.0,-100.00,West,277,2.0,6.0,54,0.00,,,0.00,,2013-03-20 12:02:00,
2013-03-20 06:12:00,26.0,12.0,-100.00,West,277,2.0,6.0,54,0.00,,,0.00,,2013-03-20 12:12:00,
2013-03-20 06:22:00,26.0,12.0,-100.00,West,277,2.0,6.0,54,0.00,,,0.00,,2013-03-20 12:22:00,
2013-03-20 06:32:00,26.0,12.0,-100.00,West,277,2.0,6.0,54,0.00,,,0.00,,2013-03-20 12:32:00,
2013-03-20 06:40:00,26.0,13.0,-100.00,West,281,2.0,5.0,57,0.00,,,0.00,,2013-03-20 12:40:00,
2013-03-20 07:03:00,26.0,13.0,-100.00,West,281,2.0,5.0,57,0.00,,,0.00,,2013-03-20 13:03:00,
2013-03-20 07:12:00,26.0,13.0,-100.00,West,281,2.0,5.0,57,0.00,,,0.00,,2013-03-20 13:12:00,
2013-03-20 07:22:00,26.0,13.0,-100.00,West,281,2.0,5.0,57,0.00,,,0.00,,2013-03-20 13:22:00,
2013-03-20 07:32:00,26.0,13.0,-100.00,West,281,2.0,5.0,57,0.00,,,0.00,,2013-03-20 13:32:00,
2013-03-20 07:40:00,27.0,14.0,-100.00,West,277,2.0,4.0,57,0.00,,,0.00,,2013-03-20 13:40:00,
2013-03-20 08:03:00,27.0,14.0,-100.00,West,277,2.0,4.0,57,0.00,,,0.00,,2013-03-20 14:03:00,
2013-03-20 08:12:00,27.0,14.0,-100.00,West,277,2.0,4.0,57,0.00,,,0.00,,2013-03-20 14:12:00,
2013-03-20 08:23:00,27.0,14.0,-100.00,West,277,2.0,4.0,57,0.00,,,0.00,,2013-03-20 14:23:00,
2013-03-20 08:33:00,27.0,14.0,-100.00,West,277,2.0,4.0,57,0.00,,,0.00,,2013-03-20 14:33:00,
2013-03-20 08:40:00,38.0,16.0,-100.00,South,173,4.0,6.0,41,0.00,,,0.00,,2013-03-20 14:40:00,
2013-03-20 09:02:00,38.0,16.0,-100.00,South,173,4.0,6.0,41,0.00,,,0.00,,2013-03-20 15:02:00,
2013-03-20 09:12:00,38.0,16.0,-100.00,South,173,4.0,6.0,41,0.00,,,0.00,,2013-03-20 15:12:00,
2013-03-20 09:22:00,38.0,16.0,-100.00,South,173,4.0,6.0,41,0.00,,,0.00,,2013-03-20 15:22:00,
2013-03-20 09:33:00,38.0,16.0,-100.00,South,173,4.0,6.0,41,0.00,,,0.00,,2013-03-20 15:33:00,
2013-03-20 09:40:00,42.0,18.0,-100.00,South,170,5.0,10.0,37,0.00,,,0.00,,2013-03-20 15:40:00,
2013-03-20 10:03:00,42.0,18.0,-100.00,South,170,5.0,10.0,37,0.00,,,0.00,,2013-03-20 16:03:00,
2013-03-20 10:12:00,42.0,18.0,-100.00,South,170,5.0,10.0,37,0.00,,,0.00,,2013-03-20 16:12:00,
2013-03-20 10:23:00,42.0,18.0,-100.00,South,170,5.0,10.0,37,0.00,,,0.00,,2013-03-20 16:23:00,
2013-03-20 10:33:00,42.0,18.0,-100.00,South,170,5.0,10.0,37,0.00,,,0.00,,2013-03-20 16:33:00,
2013-03-20 10:40:00,47.0,19.0,-100.00,SE,144,6.0,10.0,33,0.00,,,0.00,,2013-03-20 16:40:00,
2013-03-20 11:03:00,47.0,19.0,-100.00,SE,144,6.0,10.0,33,0.00,,,0.00,,2013-03-20 17:03:00,
2013-03-20 11:12:00,47.0,19.0,-100.00,SE,144,6.0,10.0,33,0.00,,,0.00,,2013-03-20 17:12:00,
2013-03-20 11:22:00,47.0,19.0,-100.00,SE,144,6.0,10.0,33,0.00,,,0.00,,2013-03-20 17:22:00,
2013-03-20 11:32:00,47.0,19.0,-100.00,SE,144,6.0,10.0,33,0.00,,,0.00,,2013-03-20 17:32:00,
2013-03-20 11:40:00,50.0,18.0,-100.00,SSE,147,7.0,13.0,28,0.00,,,0.00,,2013-03-20 17:40:00,
2013-03-20 12:02:00,50.0,18.0,-100.00,SSE,147,7.0,13.0,28,0.00,,,0.00,,2013-03-20 18:02:00,
2013-03-20 12:12:00,50.0,18.0,-100.00,SSE,147,7.0,13.0,28,0.00,,,0.00,,2013-03-20 18:12:00,
2013-03-20 12:22:00,50.0,18.0,-100.00,SSE,147,7.0,13.0,28,0.00,,,0.00,,2013-03-20 18:22:00,
2013-03-20 12:33:00,50.0,18.0,-100.00,SSE,147,7.0,13.0,28,0.00,,,0.00,,2013-03-20 18:33:00,
2013-03-20 12:40:00,53.0,16.0,-100.00,SE,146,8.0,14.0,23,0.00,,,0.00,,2013-03-20 18:40:00,
2013-03-20 13:02:00,53.0,16.0,-100.00,SE,146,8.0,14.0,23,0.00,,,0.00,,2013-03-20 19:02:00,
2013-03-20 13:12:00,53.0,16.0,-100.00,SE,146,8.0,14.0,23,0.00,,,0.00,,2013-03-20 19:12:00,
2013-03-20 13:22:00,53.0,16.0,-100.00,SE,146,8.0,14.0,23,0.00,,,0.00,,2013-03-20 19:22:00,
2013-03-20 13:32:00,53.0,16.0,-100.00,SE,146,8.0,14.0,23,0.00,,,0.00,,2013-03-20 19:32:00,
2013-03-20 13:40:00,56.0,18.0,-100.00,South,169,6.0,15.0,22,0.00,,,0.00,,2013-03-20 19:40:00,
2013-03-20 14:02:00,56.0,18.0,-100.00,South,169,6.0,15.0,22,0.00,,,0.00,,2013-03-20 20:02:00,
2013-03-20 14:13:00,56.0,18.0,-100.00,South,169,6.0,15.0,22,0.00,,,0.00,,2013-03-20 20:13:00,
2013-03-20 14:22:00,56.0,18.0,-100.00,South,169,6.0,15.0,22,0.00,,,0.00,,2013-03-20 20:22:00,
2013-03-20 14:32:00,56.0,18.0,-100.00,South,169,6.0,15.0,22,0.00,,,0.00,,2013-03-20 20:32:00,
2013-03-20 14:40:00,56.0,17.0,-100.00,SE,136,9.0,14.0,21,0.00,,,0.00,,2013-03-20 20:40:00,
2013-03-20 15:02:00,56.0,17.0,-100.00,SE,136,9.0,14.0,21,0.00,,,0.00,,2013-03-20 21:02:00,
2013-03-20 15:12:00,56.0,17.0,-100.00,SE,136,9.0,14.0,21,0.00,,,0.00,,2013-03-20 21:12:00,
2013-03-20 15:22:00,56.0,17.0,-100.00,SE,136,9.0,14.0,21,0.00,,,0.00,,2013-03-20 21:22:00,
2013-03-20 15:33:00,56.0,17.0,-100.00,SE,136,9.0,14.0,21,0.00,,,0.00,,2013-03-20 21:33:00,
2013-03-20 15:40:00,58.0,17.0,-100.00,SE,125,5.0,15.0,20,0.00,,,0.00,,2013-03-20 21:40:00,
2013-03-20 16:03:00,58.0,17.0,-100.00,SE,125,5.0,15.0,20,0.00,,,0.00,,2013-03-20 22:03:00,
2013-03-20 16:12:00,58.0,17.0,-100.00,SE,125,5.0,15.0,20,0.00,,,0.00,,2013-03-20 22:12:00,
2013-03-20 16:23:00,58.0,17.0,-100.00,SE,125,5.0,15.0,20,0.00,,,0.00,,2013-03-20 22:23:00,
2013-03-20 16:33:00,58.0,17.0,-100.00,SE,125,5.0,15.0,20,0.00,,,0.00,,2013-03-20 22:33:00,
2013-03-20 16:40:00,56.0,17.0,-100.00,NW,312,9.0,16.0,21,0.00,,,0.00,,2013-03-20 22:40:00,
2013-03-20 17:02:00,56.0,17.0,-100.00,NW,312,9.0,16.0,21,0.00,,,0.00,,2013-03-20 23:02:00,
2013-03-20 17:12:00,56.0,17.0,-100.00,NW,312,9.0,16.0,21,0.00,,,0.00,,2013-03-20 23:12:00,
2013-03-20 17:22:00,56.0,17.0,-100.00,NW,312,9.0,16.0,21,0.00,,,0.00,,2013-03-20 23:22:00,
2013-03-20 17:32:00,56.0,17.0,-100.00,NW,312,9.0,16.0,21,0.00,,,0.00,,2013-03-20 23:32:00,
2013-03-20 17:40:00,57.0,17.0,-100.00,SW,226,6.0,15.0,21,0.00,,,0.00,,2013-03-20 23:40:00,
2013-03-20 18:02:00,57.0,17.0,-100.00,SW,226,6.0,15.0,21,0.00,,,0.00,,2013-03-21 00:02:00,
2013-03-20 18:12:00,57.0,17.0,-100.00,SW,226,6.0,15.0,21,0.00,,,0.00,,2013-03-21 00:12:00,
2013-03-20 18:23:00,57.0,17.0,-100.00,SW,226,6.0,15.0,21,0.00,,,0.00,,2013-03-21 00:23:00,
2013-03-20 18:32:00,57.0,17.0,-100.00,SW,226,6.0,15.0,21,0.00,,,0.00,,2013-03-21 00:32:00,
2013-03-20 18:40:00,53.0,18.0,-100.00,West,269,2.0,17.0,25,0.00,,,0.00,,2013-03-21 00:40:00,
2013-03-20 19:02:00,53.0,18.0,-100.00,West,269,2.0,17.0,25,0.00,,,0.00,,2013-03-21 01:02:00,
2013-03-20 19:12:00,53.0,18.0,-100.00,West,269,2.0,17.0,25,0.00,,,0.00,,2013-03-21 01:12:00,
2013-03-20 19:22:00,53.0,18.0,-100.00,West,269,2.0,17.0,25,0.00,,,0.00,,2013-03-21 01:22:00,
2013-03-20 19:32:00,53.0,18.0,-100.00,West,269,2.0,17.0,25,0.00,,,0.00,,2013-03-21 01:32:00,
2013-03-20 19:40:00,50.0,16.0,-100.00,SW,218,4.0,7.0,26,0.00,,,0.00,,2013-03-21 01:40:00,
2013-03-20 20:02:00,50.0,16.0,-100.00,SW,218,4.0,7.0,26,0.00,,,0.00,,2013-03-21 02:02:00,
2013-03-20 20:12:00,50.0,16.0,-100.00,SW,218,4.0,7.0,26,0.00,,,0.00,,2013-03-21 02:12:00,
2013-03-20 20:22:00,50.0,16.0,-100.00,SW,218,4.0,7.0,26,0.00,,,0.00,,2013-03-21 02:22:00,
2013-03-20 20:32:00,50.0,16.0,-100.00,SW,218,4.0,7.0,26,0.00,,,0.00,,2013-03-21 02:32:00,
2013-03-20 20:40:00,47.0,16.0,-100.00,SW,216,3.0,9.0,28,0.00,,,0.00,,2013-03-21 02:40:00,
2013-03-20 21:02:00,47.0,16.0,-100.00,SW,216,3.0,9.0,28,0.00,,,0.00,,2013-03-21 03:02:00,
2013-03-20 21:12:00,47.0,16.0,-100.00,SW,216,3.0,9.0,28,0.00,,,0.00,,2013-03-21 03:12:00,
2013-03-20 21:22:00,47.0,16.0,-100.00,SW,216,3.0,9.0,28,0.00,,,0.00,,2013-03-21 03:22:00,
2013-03-20 21:33:00,47.0,16.0,-100.00,SW,216,3.0,9.0,28,0.00,,,0.00,,2013-03-21 03:33:00,
2013-03-20 21:40:00,45.0,16.0,-100.00,North,358,2.0,7.0,31,0.00,,,0.00,,2013-03-21 03:40:00,
2013-03-20 22:03:00,45.0,16.0,-100.00,North,358,2.0,7.0,31,0.00,,,0.00,,2013-03-21 04:03:00,
2013-03-20 22:13:00,45.0,16.0,-100.00,North,358,2.0,7.0,31,0.00,,,0.00,,2013-03-21 04:13:00,
2013-03-20 22:23:00,45.0,16.0,-100.00,North,358,2.0,7.0,31,0.00,,,0.00,,2013-03-21 04:23:00,
2013-03-20 22:33:00,45.0,16.0,-100.00,North,358,2.0,7.0,31,0.00,,,0.00,,2013-03-21 04:33:00,
2013-03-20 22:40:00,45.0,18.0,-100.00,NW,319,2.0,5.0,33,0.00,,,0.00,,2013-03-21 04:40:00,
2013-03-20 23:03:00,45.0,18.0,-100.00,NW,319,2.0,5.0,33,0.00,,,0.00,,2013-03-21 05:03:00,
2013-03-20 23:12:00,45.0,18.0,-100.00,NW,319,2.0,5.0,33,0.00,,,0.00,,2013-03-21 05:12:00,
2013-03-20 23:22:00,45.0,18.0,-100.00,NW,319,2.0,5.0,33,0.00,,,0.00,,2013-03-21 05:22:00,
2013-03-20 23:32:00,45.0,18.0,-100.00,NW,319,2.0,5.0,33,0.00,,,0.00,,2013-03-21 05:32:00,
2013-03-20 23:40:00,46.0,24.0,-100.00,NW,319,3.0,8.0,41,0.00,,,0.00,,2013-03-21 05:40:00,